Regional Weather Roundup
Issued by NWS

Home | Current Version | Previous Version | Graphics & Text | Print | Product List | Glossary On
Versions: 1 2 3 4 5 6 7 8 9 10 11 12 13 14 15 16 17 18 19 20 21 22 23 24 25 26 27 28
000
ASUS45 KTFX 231910
RWRMT
MONTANA REGIONAL WEATHER ROUNDUP
NATIONAL WEATHER SERVICE GREAT FALLS MT
100 PM MDT SUN APR 23 2017

NOTE: "FAIR" INDICATES FEW OR NO CLOUDS BELOW 12000 FEET WITH NO
SIGNIFICANT WEATHER AND/OR OBSTRUCTIONS TO VISIBILITY.

MTZ001>007-043-232000-
WEST OF THE DIVIDE

CITY           SKY/WX    TMP DP  RH WIND       PRES   REMARKS
KALISPELL      CLOUDY    53  40  61 S12       29.76F
MISSOULA       PTSUNNY   51  40  65 VRB3      29.83F
BUTTE          PTSUNNY   53  31  42 NE5       29.73F
MULLAN PASS    CLOUDY    39  31  72 CALM      29.83S
ANACONDA         N/A     43  37  81 CALM      29.80R
DEER LODGE       N/A     43  39  87 NW13      29.80S
EUREKA           N/A     54  32  43 E10G17    29.75F
HAMILTON         N/A     46  37  71 N6        29.84F
LIBBY            N/A     55  34  44 CALM      29.76F
PLAINS           N/A     56  38  50 E1        29.82
$$

MTZ008-052>055-232000-
SOUTHWEST MONTANA

CITY           SKY/WX    TMP DP  RH WIND       PRES   REMARKS
BOZEMAN        MOSUNNY   60  37  42 SE7       29.72F
DILLON         LGT RAIN  46  37  71 W25G37    29.75S
W YELLOWSTONE  CLOUDY    45  34  65 S17       29.86F
ENNIS          MOSUNNY   55  34  44 S28       29.79F
THREE FORKS      N/A     61  61 100 CALM      29.73F
TWIN BRIDGES     N/A     56  29  35 S26       29.76
$$

MTZ009-010-012-014-046-048-049-054-232000-
EAST SLOPES AND CENTRAL MONTANA

CITY           SKY/WX    TMP DP  RH WIND       PRES   REMARKS
CUT BANK       CLOUDY    50  39  66 S8        29.73F
GREAT FALLS    LGT RAIN  45  41  86 CALM      29.76F
MALMSTROM AFB  LGT RAIN  45  44  95 CALM      29.77F
HELENA         CLOUDY    52  41  66 N5        29.74F
AUGUSTA        LGT RAIN  43  38  84 W5        29.76F
BOWMANS CRNR   CLOUDY    43  40  91 NE6       29.74F
CHOTEAU          N/A     45  43  93 VRB5      29.77F
FAIRFIELD      LGT RAIN  44  39  82 CALM      29.75F
POWER          LGT RAIN  44  41  92 CALM      29.75F
RAYNESFORD     LGT RAIN  45  43  93 NW7       29.77F
ULM            LGT RAIN  45  42  88 CALM      29.76F
$$

MTZ011-013-016-021-045-047-050-051-232000-
NORTH CENTRAL MONTANA

CITY           SKY/WX    TMP DP  RH WIND       PRES   REMARKS
HAVRE          CLOUDY    49  40  71 NE7       29.77S
LEWISTOWN      PTSUNNY   56  41  57 NW18G24   29.70F
N BAR RANCH      N/A     59  41  51 SE15      29.72F
CHINOOK          N/A     43  37  81 E13       29.79S
DENTON         PTSUNNY   48  42  78 N15       29.71F
FORT BENTON      N/A     48  43  81 MISG      29.78
GEYSER         LGT RAIN  49  43  80 NE7       29.74F
GRASS RANGE    PTSUNNY   55  43  64 NE8       29.67F
JUDITH GAP     PTSUNNY   54  38  55 N28       29.71F
STANFORD       PTSUNNY   51  40  65 NW16      29.73F
WINIFRED       PTSUNNY   46  41  84 N10       29.75R
$$

MTZ017>020-022>027-061-062-232000-
NORTHEAST MONTANA

CITY           SKY/WX    TMP DP  RH WIND       PRES   REMARKS
GLASGOW        CLOUDY    40  32  73 E23G30    29.83F
JORDAN           N/A     51  39  63 SE15      29.76F
SIDNEY         CLOUDY    36  28  73 E17       29.92F WCI  26
WOLF POINT     CLOUDY    39  31  72 E21       29.89F WCI  29
MALTA          CLOUDY    43  36  75 E16       29.80F
PLENTYWOOD       N/A     30  28  93 E18G26    29.95F WCI  18
POPLAR           N/A     36  28  75 E17       29.91F WCI  25
SCOBEY           N/A     30  22  72 E17       29.90  WCI  18
$$

MTZ028>42-056>058-232000-
SOUTHCENTRAL AND SOUTHEAST MONTANA

CITY           SKY/WX    TMP DP  RH WIND       PRES   REMARKS
BAKER          CLOUDY    40  33  76 E16       29.83F
BILLINGS       MOSUNNY   62  37  39 W8G17     29.71F
LIVINGSTON     CLOUDY    58  40  51 SW24G30   29.73F
MILES CITY     MOSUNNY   52  39  61 NE10      29.76F
BIG TIMBER     MOSUNNY   59  37  44 SW17      29.75F
EKALAKA          N/A     48  38  68 E10       29.78
LAUREL           N/A     63  35  35 SW5       29.72S
ROUNDUP          N/A     63  33  32 S7        29.64F
$$

REGIONAL REPORTS...DAKOTAS

CITY           SKY/WX    TMP DP  RH WIND       PRES   REMARKS
WILLISTON      CLOUDY    32  26  78 E18       29.98F WCI  20
MINOT          FLURRIES  32  28  85 NE18      30.04S WCI  20
DICKINSON      CLOUDY    34  30  85 E15       29.87F WCI  24
BEACH          CLOUDY    36  34  93 SE13G22   29.89F WCI  27
TIOGA          MIX PCPN  28  28 100 E22       29.99F WCI  15
WATFORD CITY   CLOUDY    30  30 100 E16       29.95F WCI  19
BISMARCK       CLOUDY    40  33  76 E21G30    29.94F
GRAND FORKS    LGT SNOW  33  25  72 E14       30.15F WCI  23
FARGO          CLOUDY    41  33  73 NE17      30.05F
BUFFALO SD       N/A     45  44  97 NE10      29.75F
RAPID CITY     SUNNY     65  40  39 N9        29.76F
$$

REGIONAL REPORTS...WYOMING/IDAHO/WASHINGTON

CITY           SKY/WX    TMP DP  RH WIND       PRES   REMARKS
GILLETTE       SUNNY     65  33  30 VRB7      29.74F
SHERIDAN       SUNNY     68  34  28 SE12G21   29.70F
BUFFALO WY     SUNNY     66  32  28 SE20G26   29.74F
CODY           SUNNY     61  36  39 S10       29.74F
YELLOWSTONE LA   N/A     46  24  42 VRB6      29.88F
IDAHO FALLS    CLOUDY    58  36  43 SW12      29.83F
SALMON         CLOUDY    54  37  54 N9        29.77S
BOISE          MOSUNNY   61  43  51 NW8       29.84F
SPOKANE        CLOUDY    52  38  58 S13       29.84F
$$

REGIONAL REPORTS...ALBERTA

CITY           SKY/WX    TMP DP  RH WIND       PRES   REMARKS
EDMONTON       LGT SNOW  30  28  93 E12       29.86S WCI  21
CALGARY        PTSUNNY   45  37  76 SE3       29.73F
LETHBRIDGE     CLOUDY    54  39  58 W7        29.71F
MEDICINE HAT   CLOUDY    50  43  76 CALM      29.74F
WATERTON GATE    N/A     52  27  37 SW9         N/A
CARDSTON         N/A     54  28  37 W13G21      N/A
MILK RIVER       N/A     52  41  66 S6          N/A
ONEFOUR          N/A     41  37  87 SE10        N/A
$$

REGIONAL REPORTS...SASKATCHEWAN

CITY           SKY/WX    TMP DP  RH WIND       PRES   REMARKS
SWIFT CURRENT  MIX PCPN  34  30  86 SE23G29   29.83F WCI  22
REGINA         CLOUDY    39  14  35 SE21G31   30.00F WCI  29
SASKATOON      CLOUDY    43  27  52 SE18G25   29.99F
VAL MARIE        N/A     36  34  93 SE12        N/A  WCI  27
ROCKGLEN         N/A     27  27 100 SE20G25     N/A  WCI  13
$$




USA.gov is the U.S. government's official web portal to all federal, state and local government web resources and services.